Time,TemperatureF,DewpointF,PressureIn,WindDirection,WindDirectionDegrees,WindSpeedMPH,WindSpeedGustMPH,Humidity,HourlyPrecipIn,Conditions,Clouds,dailyrainin,SoftwareType,DateUTC
2013-06-16 00:02:00,64.0,63.0,29.90,SSE,149,0.0,-999.0,96,-99.99,,,-99.99,,2013-06-16 04:02:00,
2013-06-16 00:12:00,64.0,63.0,29.90,SSE,149,0.0,-999.0,96,-99.99,,,-99.99,,2013-06-16 04:12:00,
2013-06-16 00:23:00,64.0,63.0,29.89,SSE,149,0.0,-999.0,97,-99.99,,,-99.99,,2013-06-16 04:23:00,
2013-06-16 00:34:00,63.0,62.0,29.88,SSE,154,0.0,-999.0,97,-99.99,,,-99.99,,2013-06-16 04:34:00,
2013-06-16 00:42:00,63.0,62.0,29.88,SSE,154,0.0,-999.0,97,-99.99,,,-99.99,,2013-06-16 04:42:00,
2013-06-16 00:53:00,63.0,62.0,29.88,SSE,155,0.0,-999.0,97,-99.99,,,-99.99,,2013-06-16 04:53:00,
2013-06-16 01:01:00,63.0,62.0,29.87,SSE,155,0.0,-999.0,97,-99.99,,,-99.99,,2013-06-16 05:01:00,
2013-06-16 01:12:00,63.0,62.0,29.87,SSE,155,0.0,-999.0,97,-99.99,,,-99.99,,2013-06-16 05:12:00,
2013-06-16 01:22:00,63.0,62.0,29.88,SSW,194,1.0,-999.0,97,-99.99,,,-99.99,,2013-06-16 05:22:00,
2013-06-16 01:34:00,63.0,62.0,29.88,SSW,194,1.0,-999.0,97,-99.99,,,-99.99,,2013-06-16 05:34:00,
2013-06-16 01:43:00,63.0,62.0,29.88,SSW,194,1.0,-999.0,97,-99.99,,,-99.99,,2013-06-16 05:43:00,
2013-06-16 01:52:00,64.0,63.0,29.88,SW,225,4.0,-999.0,96,-99.99,,,-99.99,,2013-06-16 05:52:00,
2013-06-16 02:01:00,65.0,64.0,29.87,SW,225,3.0,-999.0,96,-99.99,,,-99.99,,2013-06-16 06:01:00,
2013-06-16 02:11:00,65.0,64.0,29.87,SW,225,3.0,-999.0,96,-99.99,,,-99.99,,2013-06-16 06:11:00,
2013-06-16 02:22:00,65.0,64.0,29.86,SW,224,3.0,-999.0,95,-99.99,,,-99.99,,2013-06-16 06:22:00,
2013-06-16 02:33:00,65.0,64.0,29.85,SW,222,5.0,-999.0,95,-99.99,,,-99.99,,2013-06-16 06:33:00,
2013-06-16 02:43:00,65.0,64.0,29.85,SW,222,5.0,-999.0,95,-99.99,,,-99.99,,2013-06-16 06:43:00,
2013-06-16 02:52:00,65.0,64.0,29.86,SW,225,4.0,-999.0,95,-99.99,,,-99.99,,2013-06-16 06:52:00,
2013-06-16 03:01:00,66.0,64.0,29.86,SW,225,6.0,-999.0,94,-99.99,,,-99.99,,2013-06-16 07:01:00,
2013-06-16 03:12:00,66.0,64.0,29.86,SW,225,6.0,-999.0,94,-99.99,,,-99.99,,2013-06-16 07:12:00,
2013-06-16 03:22:00,67.0,65.0,29.85,SW,216,7.0,-999.0,92,-99.99,,,-99.99,,2013-06-16 07:22:00,
2013-06-16 03:33:00,67.0,64.0,29.85,SSW,205,6.0,-999.0,91,-99.99,,,-99.99,,2013-06-16 07:33:00,
2013-06-16 03:43:00,67.0,64.0,29.85,SSW,205,6.0,-999.0,91,-99.99,,,-99.99,,2013-06-16 07:43:00,
2013-06-16 03:53:00,67.0,64.0,29.85,SW,218,3.0,-999.0,91,-99.99,,,-99.99,,2013-06-16 07:53:00,
2013-06-16 04:02:00,67.0,65.0,29.84,WSW,239,3.0,-999.0,93,-99.99,,,-99.99,,2013-06-16 08:02:00,
2013-06-16 04:12:00,67.0,65.0,29.84,WSW,239,3.0,-999.0,93,-99.99,,,-99.99,,2013-06-16 08:12:00,
2013-06-16 04:22:00,67.0,65.0,29.84,SW,231,1.0,-999.0,93,-99.99,,,-99.99,,2013-06-16 08:22:00,
2013-06-16 04:33:00,67.0,65.0,29.84,SW,223,3.0,-999.0,93,-99.99,,,-99.99,,2013-06-16 08:33:00,
2013-06-16 04:43:00,67.0,65.0,29.84,SW,223,3.0,-999.0,93,-99.99,,,-99.99,,2013-06-16 08:43:00,
2013-06-16 04:54:00,67.0,65.0,29.85,SW,225,2.0,-999.0,93,-99.99,,,-99.99,,2013-06-16 08:54:00,
2013-06-16 05:02:00,67.0,65.0,29.84,SW,229,0.0,-999.0,94,-99.99,,,-99.99,,2013-06-16 09:02:00,
2013-06-16 05:11:00,67.0,65.0,29.84,SW,229,0.0,-999.0,94,-99.99,,,-99.99,,2013-06-16 09:11:00,
2013-06-16 05:22:00,67.0,65.0,29.84,SW,226,2.0,-999.0,94,-99.99,,,-99.99,,2013-06-16 09:22:00,
2013-06-16 05:33:00,67.0,65.0,29.86,SW,219,1.0,-999.0,94,-99.99,,,-99.99,,2013-06-16 09:33:00,
2013-06-16 05:43:00,67.0,65.0,29.86,SW,219,1.0,-999.0,94,-99.99,,,-99.99,,2013-06-16 09:43:00,
2013-06-16 05:52:00,67.0,66.0,29.86,SW,219,0.0,-999.0,95,-99.99,,,-99.99,,2013-06-16 09:52:00,
2013-06-16 06:02:00,66.0,65.0,29.86,SW,219,0.0,-999.0,95,-99.99,,,-99.99,,2013-06-16 10:02:00,
2013-06-16 06:12:00,66.0,65.0,29.86,SW,219,0.0,-999.0,95,-99.99,,,-99.99,,2013-06-16 10:12:00,
2013-06-16 06:22:00,66.0,65.0,29.87,SW,219,0.0,-999.0,95,-99.99,,,-99.99,,2013-06-16 10:22:00,
2013-06-16 06:33:00,65.0,64.0,29.86,SW,229,1.0,-999.0,95,-99.99,,,-99.99,,2013-06-16 10:33:00,
2013-06-16 06:43:00,65.0,64.0,29.86,SW,229,1.0,-999.0,95,-99.99,,,-99.99,,2013-06-16 10:43:00,
2013-06-16 06:54:00,65.0,63.0,29.85,SW,224,1.0,-999.0,94,-99.99,,,-99.99,,2013-06-16 10:54:00,
2013-06-16 07:02:00,65.0,63.0,29.85,SW,223,2.0,-999.0,94,-99.99,,,-99.99,,2013-06-16 11:02:00,
2013-06-16 07:12:00,65.0,63.0,29.85,SW,223,2.0,-999.0,94,-99.99,,,-99.99,,2013-06-16 11:12:00,
2013-06-16 07:22:00,65.0,63.0,29.85,SSW,207,1.0,-999.0,94,-99.99,,,-99.99,,2013-06-16 11:22:00,
2013-06-16 07:34:00,65.0,63.0,29.85,SW,217,1.0,-999.0,94,-99.99,,,-99.99,,2013-06-16 11:34:00,
2013-06-16 07:43:00,65.0,63.0,29.85,SW,217,1.0,-999.0,94,-99.99,,,-99.99,,2013-06-16 11:43:00,
2013-06-16 07:53:00,65.0,63.0,29.85,SW,223,2.0,-999.0,94,-99.99,,,-99.99,,2013-06-16 11:53:00,
2013-06-16 08:02:00,65.0,63.0,29.86,SW,221,1.0,-999.0,94,-99.99,,,-99.99,,2013-06-16 12:02:00,
2013-06-16 08:12:00,65.0,63.0,29.86,SW,221,1.0,-999.0,94,-99.99,,,-99.99,,2013-06-16 12:12:00,
2013-06-16 08:22:00,66.0,64.0,29.86,SW,227,3.0,-999.0,93,-99.99,,,-99.99,,2013-06-16 12:22:00,
2013-06-16 08:32:00,65.0,63.0,29.87,SW,219,3.0,-999.0,94,-99.99,,,-99.99,,2013-06-16 12:32:00,
2013-06-16 08:42:00,65.0,63.0,29.87,SW,219,3.0,-999.0,94,-99.99,,,-99.99,,2013-06-16 12:42:00,
2013-06-16 08:53:00,65.0,63.0,29.86,SW,217,2.0,-999.0,94,-99.99,,,-99.99,,2013-06-16 12:53:00,
2013-06-16 09:01:00,66.0,64.0,29.86,SSW,196,3.0,-999.0,94,-99.99,,,-99.99,,2013-06-16 13:01:00,
2013-06-16 09:11:00,66.0,64.0,29.86,SSW,196,3.0,-999.0,94,-99.99,,,-99.99,,2013-06-16 13:11:00,
2013-06-16 09:22:00,67.0,65.0,29.87,SW,231,4.0,-999.0,92,-99.99,,,-99.99,,2013-06-16 13:22:00,
2013-06-16 09:34:00,68.0,65.0,29.87,WSW,250,3.0,-999.0,90,-99.99,,,-99.99,,2013-06-16 13:34:00,
2013-06-16 09:43:00,68.0,65.0,29.87,WSW,250,3.0,-999.0,90,-99.99,,,-99.99,,2013-06-16 13:43:00,
2013-06-16 09:54:00,68.0,64.0,29.86,SSW,202,4.0,-999.0,88,-99.99,,,-99.99,,2013-06-16 13:54:00,
2013-06-16 10:02:00,69.0,65.0,29.86,WNW,288,3.0,-999.0,88,-99.99,,,-99.99,,2013-06-16 14:02:00,
2013-06-16 10:12:00,69.0,65.0,29.86,WNW,288,3.0,-999.0,88,-99.99,,,-99.99,,2013-06-16 14:12:00,
2013-06-16 10:22:00,70.0,66.0,29.87,SW,219,3.0,-999.0,87,-99.99,,,-99.99,,2013-06-16 14:22:00,
2013-06-16 10:34:00,71.0,66.0,29.88,West,271,4.0,-999.0,85,-99.99,,,-99.99,,2013-06-16 14:34:00,
2013-06-16 10:43:00,71.0,66.0,29.88,West,271,4.0,-999.0,85,-99.99,,,-99.99,,2013-06-16 14:43:00,
2013-06-16 10:53:00,72.0,67.0,29.87,WSW,246,2.0,-999.0,84,-99.99,,,-99.99,,2013-06-16 14:53:00,
2013-06-16 11:02:00,72.0,67.0,29.87,NW,313,2.0,-999.0,83,-99.99,,,-99.99,,2013-06-16 15:02:00,
2013-06-16 11:12:00,72.0,67.0,29.87,NW,313,2.0,-999.0,83,-99.99,,,-99.99,,2013-06-16 15:12:00,
2013-06-16 11:23:00,72.0,67.0,29.86,SW,221,2.0,-999.0,83,-99.99,,,-99.99,,2013-06-16 15:23:00,
2013-06-16 11:33:00,73.0,67.0,29.87,SW,220,1.0,-999.0,82,-99.99,,,-99.99,,2013-06-16 15:33:00,
2013-06-16 11:43:00,73.0,67.0,29.87,SW,220,1.0,-999.0,82,-99.99,,,-99.99,,2013-06-16 15:43:00,
2013-06-16 11:53:00,73.0,67.0,29.88,WSW,242,1.0,-999.0,82,-99.99,,,-99.99,,2013-06-16 15:53:00,
2013-06-16 12:02:00,72.0,66.0,29.87,SSW,196,3.0,-999.0,82,-99.99,,,-99.99,,2013-06-16 16:02:00,
2013-06-16 12:12:00,72.0,66.0,29.87,SSW,196,3.0,-999.0,82,-99.99,,,-99.99,,2013-06-16 16:12:00,
2013-06-16 12:23:00,73.0,68.0,29.87,SSW,207,4.0,-999.0,83,-99.99,,,-99.99,,2013-06-16 16:23:00,
2013-06-16 12:33:00,73.0,67.0,29.88,SSE,159,4.0,-999.0,82,-99.99,,,-99.99,,2013-06-16 16:33:00,
2013-06-16 12:43:00,73.0,67.0,29.88,SSE,159,4.0,-999.0,82,-99.99,,,-99.99,,2013-06-16 16:43:00,
2013-06-16 12:53:00,74.0,68.0,29.88,NW,306,2.0,-999.0,83,-99.99,,,-99.99,,2013-06-16 16:53:00,
2013-06-16 13:02:00,73.0,67.0,29.88,SW,235,3.0,-999.0,82,-99.99,,,-99.99,,2013-06-16 17:02:00,
2013-06-16 13:12:00,73.0,67.0,29.88,SW,235,3.0,-999.0,82,-99.99,,,-99.99,,2013-06-16 17:12:00,
2013-06-16 13:22:00,74.0,68.0,29.88,SW,220,3.0,-999.0,82,-99.99,,,-99.99,,2013-06-16 17:22:00,
2013-06-16 13:34:00,74.0,68.0,29.88,SSW,194,5.0,-999.0,81,-99.99,,,-99.99,,2013-06-16 17:34:00,
2013-06-16 13:43:00,74.0,68.0,29.88,SSW,194,5.0,-999.0,81,-99.99,,,-99.99,,2013-06-16 17:43:00,
2013-06-16 13:53:00,75.0,68.0,29.87,SSW,198,4.0,-999.0,80,-99.99,,,-99.99,,2013-06-16 17:53:00,
2013-06-16 14:02:00,75.0,69.0,29.87,SW,225,2.0,-999.0,81,-99.99,,,-99.99,,2013-06-16 18:02:00,
2013-06-16 14:12:00,75.0,69.0,29.87,SW,225,2.0,-999.0,81,-99.99,,,-99.99,,2013-06-16 18:12:00,
2013-06-16 14:22:00,75.0,68.0,29.88,SSW,209,6.0,-999.0,80,-99.99,,,-99.99,,2013-06-16 18:22:00,
2013-06-16 14:33:00,75.0,68.0,29.88,SSW,213,5.0,-999.0,78,-99.99,,,-99.99,,2013-06-16 18:33:00,
2013-06-16 14:43:00,75.0,68.0,29.88,SSW,213,5.0,-999.0,78,-99.99,,,-99.99,,2013-06-16 18:43:00,
2013-06-16 14:52:00,75.0,68.0,29.87,SW,223,3.0,-999.0,79,-99.99,,,-99.99,,2013-06-16 18:52:00,
2013-06-16 15:01:00,75.0,68.0,29.88,SW,233,5.0,-999.0,78,-99.99,,,-99.99,,2013-06-16 19:01:00,
2013-06-16 15:11:00,75.0,68.0,29.88,SW,233,5.0,-999.0,78,-99.99,,,-99.99,,2013-06-16 19:11:00,
2013-06-16 15:22:00,75.0,68.0,29.87,South,189,4.0,-999.0,78,-99.99,,,-99.99,,2013-06-16 19:22:00,
2013-06-16 15:34:00,75.0,68.0,29.88,WSW,252,5.0,-999.0,78,-99.99,,,-99.99,,2013-06-16 19:34:00,
2013-06-16 15:43:00,75.0,68.0,29.88,WSW,252,5.0,-999.0,78,-99.99,,,-99.99,,2013-06-16 19:43:00,
2013-06-16 15:53:00,75.0,68.0,29.87,WSW,254,4.0,-999.0,78,-99.99,,,-99.99,,2013-06-16 19:53:00,
2013-06-16 16:02:00,76.0,69.0,29.88,SSW,202,3.0,-999.0,79,-99.99,,,-99.99,,2013-06-16 20:02:00,
2013-06-16 16:12:00,76.0,69.0,29.88,SSW,202,3.0,-999.0,79,-99.99,,,-99.99,,2013-06-16 20:12:00,
2013-06-16 16:22:00,77.0,69.0,29.87,SSW,205,4.0,-999.0,76,-99.99,,,-99.99,,2013-06-16 20:22:00,
2013-06-16 16:33:00,77.0,69.0,29.88,SSW,209,6.0,-999.0,76,-99.99,,,-99.99,,2013-06-16 20:33:00,
2013-06-16 16:42:00,77.0,69.0,29.88,SSW,209,6.0,-999.0,76,-99.99,,,-99.99,,2013-06-16 20:42:00,
2013-06-16 16:53:00,77.0,68.0,29.87,SW,217,5.0,-999.0,75,-99.99,,,-99.99,,2013-06-16 20:53:00,
2013-06-16 17:02:00,78.0,70.0,29.87,SW,226,2.0,-999.0,76,-99.99,,,-99.99,,2013-06-16 21:02:00,
2013-06-16 17:11:00,78.0,70.0,29.87,SW,226,2.0,-999.0,76,-99.99,,,-99.99,,2013-06-16 21:11:00,
2013-06-16 17:22:00,78.0,69.0,29.86,WSW,250,3.0,-999.0,73,-99.99,,,-99.99,,2013-06-16 21:22:00,
2013-06-16 17:33:00,78.0,68.0,29.86,South,190,3.0,-999.0,72,-99.99,,,-99.99,,2013-06-16 21:33:00,
2013-06-16 17:42:00,78.0,68.0,29.86,South,190,3.0,-999.0,72,-99.99,,,-99.99,,2013-06-16 21:42:00,
2013-06-16 17:53:00,77.0,68.0,29.86,West,261,1.0,-999.0,74,-99.99,,,-99.99,,2013-06-16 21:53:00,
2013-06-16 18:01:00,77.0,68.0,29.86,West,261,1.0,-999.0,74,-99.99,,,-99.99,,2013-06-16 22:01:00,
2013-06-16 18:12:00,77.0,68.0,29.85,WSW,239,3.0,-999.0,73,-99.99,,,-99.99,,2013-06-16 22:12:00,
2013-06-16 18:22:00,78.0,68.0,29.85,WSW,256,3.0,-999.0,72,-99.99,,,-99.99,,2013-06-16 22:22:00,
2013-06-16 18:32:00,79.0,69.0,29.85,SW,226,1.0,-999.0,72,-99.99,,,-99.99,,2013-06-16 22:32:00,
2013-06-16 18:42:00,79.0,69.0,29.85,SW,226,1.0,-999.0,72,-99.99,,,-99.99,,2013-06-16 22:42:00,
2013-06-16 18:52:00,78.0,68.0,29.85,SW,231,3.0,-999.0,72,-99.99,,,-99.99,,2013-06-16 22:52:00,
2013-06-16 19:01:00,78.0,69.0,29.85,South,190,2.0,-999.0,74,-99.99,,,-99.99,,2013-06-16 23:01:00,
2013-06-16 19:11:00,78.0,69.0,29.85,South,190,2.0,-999.0,74,-99.99,,,-99.99,,2013-06-16 23:11:00,
2013-06-16 19:22:00,78.0,68.0,29.85,West,259,1.0,-999.0,72,-99.99,,,-99.99,,2013-06-16 23:22:00,
2013-06-16 19:32:00,77.0,67.0,29.85,NW,315,1.0,-999.0,72,-99.99,,,-99.99,,2013-06-16 23:32:00,
2013-06-16 19:42:00,77.0,67.0,29.85,NW,315,1.0,-999.0,72,-99.99,,,-99.99,,2013-06-16 23:42:00,
2013-06-16 19:52:00,77.0,68.0,29.86,WSW,237,2.0,-999.0,73,-99.99,,,-99.99,,2013-06-16 23:52:00,
2013-06-16 20:02:00,77.0,68.0,29.86,SW,227,2.0,-999.0,74,-99.99,,,-99.99,,2013-06-17 00:02:00,
2013-06-16 20:11:00,77.0,68.0,29.86,SW,227,2.0,-999.0,74,-99.99,,,-99.99,,2013-06-17 00:11:00,
2013-06-16 20:22:00,77.0,68.0,29.86,SW,236,0.0,-999.0,74,-99.99,,,-99.99,,2013-06-17 00:22:00,
2013-06-16 20:32:00,76.0,67.0,29.86,WSW,248,1.0,-999.0,75,-99.99,,,-99.99,,2013-06-17 00:32:00,
2013-06-16 20:43:00,76.0,67.0,29.86,WSW,248,1.0,-999.0,75,-99.99,,,-99.99,,2013-06-17 00:43:00,
2013-06-16 20:52:00,76.0,68.0,29.87,WSW,248,0.0,-999.0,76,-99.99,,,-99.99,,2013-06-17 00:52:00,
2013-06-16 21:02:00,75.0,68.0,29.86,WSW,248,0.0,-999.0,78,-99.99,,,-99.99,,2013-06-17 01:02:00,
2013-06-16 21:12:00,75.0,68.0,29.86,WSW,248,0.0,-999.0,78,-99.99,,,-99.99,,2013-06-17 01:12:00,
2013-06-16 21:22:00,74.0,67.0,29.86,WSW,248,0.0,-999.0,79,-99.99,,,-99.99,,2013-06-17 01:22:00,
2013-06-16 21:32:00,74.0,67.0,29.86,WSW,248,0.0,-999.0,79,-99.99,,,-99.99,,2013-06-17 01:32:00,
2013-06-16 21:43:00,74.0,67.0,29.86,WSW,248,0.0,-999.0,80,-99.99,,,-99.99,,2013-06-17 01:43:00,
2013-06-16 21:53:00,73.0,67.0,29.86,WSW,248,0.0,-999.0,81,-99.99,,,-99.99,,2013-06-17 01:53:00,
2013-06-16 22:02:00,72.0,67.0,29.86,WSW,248,0.0,-999.0,83,-99.99,,,-99.99,,2013-06-17 02:02:00,
2013-06-16 22:12:00,72.0,67.0,29.86,WSW,248,0.0,-999.0,83,-99.99,,,-99.99,,2013-06-17 02:12:00,
2013-06-16 22:22:00,71.0,66.0,29.86,WSW,248,0.0,-999.0,85,-99.99,,,-99.99,,2013-06-17 02:22:00,
2013-06-16 22:34:00,71.0,67.0,29.87,WSW,248,0.0,-999.0,87,-99.99,,,-99.99,,2013-06-17 02:34:00,
2013-06-16 22:43:00,71.0,67.0,29.87,WSW,248,0.0,-999.0,87,-99.99,,,-99.99,,2013-06-17 02:43:00,
2013-06-16 22:53:00,70.0,66.0,29.87,WSW,248,0.0,-999.0,88,-99.99,,,-99.99,,2013-06-17 02:53:00,
2013-06-16 23:02:00,69.0,66.0,29.88,WSW,248,0.0,-999.0,89,-99.99,,,-99.99,,2013-06-17 03:02:00,
2013-06-16 23:12:00,69.0,66.0,29.88,WSW,248,0.0,-999.0,89,-99.99,,,-99.99,,2013-06-17 03:12:00,
2013-06-16 23:22:00,69.0,66.0,29.88,WSW,248,0.0,-999.0,89,-99.99,,,-99.99,,2013-06-17 03:22:00,
2013-06-16 23:33:00,68.0,65.0,29.88,WSW,248,0.0,-999.0,90,-99.99,,,-99.99,,2013-06-17 03:33:00,
2013-06-16 23:44:00,68.0,65.0,29.88,WSW,248,0.0,-999.0,90,-99.99,,,-99.99,,2013-06-17 03:44:00,
2013-06-16 23:53:00,68.0,66.0,29.88,WSW,248,0.0,-999.0,92,-99.99,,,-99.99,,2013-06-17 03:53:00,